Tracking 19817 objects as of 19-Aug-2019
HD Live streaming from Space Station
objects crossing your sky now

FENGYUN 1C DEB

Track FENGYUN 1C DEB now!
10-day predictions


NORAD ID: 37917
Int'l Code: 1999-025ENS
Perigee: 842.7 km
Apogee: 917.4 km
Inclination: 99.0 °
Period: 102.4 minutes
Semi major axis: 7251 km
RCS: 0.0019 m2 (small)
Launch date: May 10, 1999
Source: People's Republic of China (PRC)
Launch site: Taiyaun Space Center, China (TSC)

Note: This is SATELLITE DEBRIS
aabbcc
Your satellite tracking list
Your tracking list is empty




NASA's NSSDC Master Catalog

Two Line Element Set (TLE):
1 37917U 99025ENS 19230.02604388 +.00000478 +00000-0 +31441-3 0  9993
2 37917 098.9855 315.1795 0051550 049.8742 310.6926 14.06049974313248
Source of the keplerian elements: AFSPC